Location: Allen Lane School
(37.8198°N, 89.7382°W)
Time: 21:28:13
(UTC+00:00)

Cosmos 44 - Pass Details

Date: 05 July 2022
Orbit: 595 x 766 km, 65.1° (Epoch: 13 August)

Event Time Altitude Azimuth Distance (km) Brightness Sun altitude
Exits shadow 05:39:08 26° 54° (NE) 1,243 4.8 -29.1°
Drops below altitude 10° 05:41:17 10° 41° (NE) 2,007 6.2 -29.2°
Sets 05:43:34 0° 36° (NE) 2,896 7.2 -29.2°
